#timestamp,LO_Frequency,Hit,StdDev 
1506549615.9,286047020.6,N
1506549635.7,286047023.5,Y
1506549655.6,286047006.0,P
1506549675.4,286047007.1,N
1506549695.2,286047007.6,N
1506549715.1,286047010.1,N
1506549716.0,286047010.1,N
1506549735.8,286047011.9,Y
1506549755.6,286046999.5,P
1506549775.5,286047000.0,N
1506549795.3,286046998.3,N
1506549815.1,286047004.1,N
1506549835.9,286047004.5,N
1506549855.7,286047005.3,N
1506549875.5,286047007.7,N
1506549895.3,286047010.5,N
1506549915.2,286047007.8,N
1506549935.0,286047010.1,N
1506549935.9,286047010.1,N
1506549955.8,286047013.6,Y
1506549975.6,286047003.4,P
1506549995.4,286047005.3,P
1506550015.2,286047002.8,N
1506550035.1,286047000.2,N
1506550036.0,286047000.2,N
1506550055.8,286047002.4,N
1506550075.6,286047000.1,N
1506550095.5,286047005.9,N
1506550115.3,286047006.1,N
1506550135.1,286047008.2,Y
1506550155.9,286047006.3,P
1506550175.7,286047006.7,P
1506550195.5,286047008.5,P
1506550215.4,286047005.0,N
1506550235.2,286047002.6,N
1506550255.0,286046998.6,N
1506550255.9,286046998.6,N
1506550275.8,286046999.1,N
1506550295.6,286046997.4,N
1506550315.4,286046997.7,N
1506550335.3,286046999.6,N
1506550355.1,286046994.9,N
1506550356.0,286046994.9,N
1506550375.8,286046994.0,N
1506550395.6,286046994.1,N
1506550415.5,286046992.8,N
1506550435.3,286046991.2,N
1506550455.1,286046989.1,N
1506550475.9,286046987.8,N
1506550495.7,286046989.7,N
1506550515.5,286046989.9,N
1506550535.4,286046988.2,N
1506550555.2,286046985.0,N
1506550575.0,286046982.1,N
1506550575.9,286046982.1,N
1506550595.8,286046982.5,N
1506550615.6,286046984.6,N
1506550635.4,286046984.0,N
1506550655.3,286046982.3,N
1506550675.1,286046983.7,N
1506550676.0,286046983.7,N
1506550695.8,286046986.3,N
1506550715.7,286046984.1,N
1506550735.5,286046982.1,N
1506550755.3,286046984.0,N
1506550775.2,286046982.1,N
1506550795.9,286046977.5,Y
1506550815.7,286046987.5,P
1506550835.6,286046987.5,P
1506550855.4,286046989.4,P
1506550875.2,286046993.2,Y
1506550895.1,286047005.9,P
1506550896.0,286047005.9,N
1506550915.8,286047003.7,N
1506550935.6,286047003.1,N
1506550955.4,286047000.4,N
1506550975.3,286047000.9,N
1506550995.1,286047002.2,N
1506551015.8,286047004.3,N
1506551035.7,286047002.5,N
1506551055.5,286047000.4,N
1506551075.3,286047001.0,N
1506551095.2,286046998.5,N
1506551115.9,286046997.9,N
1506551135.7,286046999.4,N
1506551155.6,286047000.5,N
1506551175.4,286046998.0,N
1506551195.2,286046993.3,N
1506551215.0,286046996.3,N
1506551216.0,286046996.3,N
1506551235.8,286046996.1,N
1506551255.6,286046997.5,N
1506551275.4,286046995.4,N
1506551295.3,286046995.7,N
1506551315.1,286046995.0,N
1506551335.8,286046996.4,N
1506551355.7,286046997.8,N
1506551375.5,286046994.9,N
1506551395.3,286046995.4,N
1506551415.2,286046993.4,N
1506551435.9,286046993.4,N
1506551455.7,286046999.6,N
1506551475.6,286047003.1,N
1506551495.4,286047007.7,N
1506551515.2,286047007.7,N
1506551535.0,286047009.3,N
1506551535.9,286047009.3,N
1506551555.8,286047018.6,Y
1506551575.6,286047015.9,P
1506551595.5,286047019.2,N
1506551615.3,286047020.4,N
1506551635.1,286047021.8,N
1506551655.8,286047018.9,N
1506551675.7,286047020.8,N
1506551695.5,286047022.0,Y
1506551715.3,286047003.8,P
1506551735.2,286047005.5,N
1506551755.0,286047003.7,N
1506551755.9,286047003.7,N
1506551775.7,286047006.0,N
1506551795.6,286047005.2,N
1506551815.4,286047004.8,N
1506551835.2,286047007.6,N
1506551855.1,286047003.9,N
1506551856.0,286047003.9,N
1506551875.8,286047005.5,N
1506551895.6,286047004.4,N
1506551915.5,286047007.4,N
1506551935.3,286047004.4,N
1506551955.1,286047002.9,N
1506551975.9,286047002.5,N
1506551995.7,286047005.2,N
1506552015.5,286047005.3,N
1506552035.4,286047009.7,Y
1506552055.2,286047006.1,P
1506552075.0,286047006.9,P
1506552075.9,286047006.9,P
1506552095.8,286047005.1,Y
1506552115.6,286046998.3,P
1506552135.4,286047000.6,N
1506552155.3,286046995.4,N
1506552175.1,286046994.1,N
1506552176.0,286046994.1,N
1506552195.8,286046995.5,N
1506552215.6,286046998.9,N
1506552235.5,286046999.5,N
1506552255.3,286046993.9,N
1506552275.1,286046992.2,N
1506552295.9,286046993.1,N
1506552315.7,286046992.2,N
1506552335.5,286046991.2,N
1506552355.4,286046989.9,N
1506552375.2,286046988.4,N
1506552395.0,286046985.4,Y
1506552395.9,286046985.4,P
1506552415.8,286046991.5,N
1506552435.6,286046989.2,N
1506552455.4,286046989.2,Y
1506552475.3,286046996.5,P
1506552495.1,286047001.2,N
1506552515.8,286046997.7,N
1506552535.7,286046998.8,N
1506552555.5,286046996.8,N
1506552575.3,286046997.9,N
1506552595.2,286046990.8,N
1506552615.9,286046989.0,Y
1506552635.7,286046993.1,P
1506552655.6,286046991.8,P
1506552675.4,286046991.8,P
1506552695.2,286046992.6,Y
1506552715.1,286047000.1,P
1506552716.0,286047000.1,N
1506552735.8,286047004.1,N
1506552755.6,286047005.9,N
1506552775.5,286047005.4,N
1506552795.3,286047003.4,N
1506552815.1,286047001.5,N
1506552835.9,286047002.5,N
1506552855.7,286047004.1,N
1506552875.5,286046998.4,N
1506552895.3,286046997.6,N
1506552915.2,286046993.5,N
1506552935.0,286046995.5,N
1506552935.9,286046995.5,N
1506552955.7,286046996.1,N
1506552975.6,286046994.9,N
1506552995.4,286046996.1,N
1506553015.2,286046996.8,N
1506553035.1,286046997.8,N
1506553036.0,286046997.8,N
1506553055.8,286046995.5,N
1506553075.6,286046996.4,N
1506553095.5,286046994.0,N
1506553115.3,286046994.1,N
1506553135.1,286046992.2,N
1506553155.9,286046992.5,N
1506553175.7,286046995.9,N
1506553195.5,286046994.1,N
